Tracking 28790 objects as of 19-Apr-2024
HD Live streaming from Space Station
objects crossing your sky now

STARLINK-1904

Track STARLINK-1904 now!
10-day predictions
STARLINK-1904 is classified as:


NORAD ID: 48389
Int'l Code: 2021-038AN
Perigee: 553.4 km
Apogee: 555.4 km
Inclination: 53.1 °
Period: 95.6 minutes
Semi major axis: 6925 km
RCS: Unknown
Launch date: May 4, 2021
Source: United States (US)
Launch site: AIR FORCE EASTERN TEST RANGE (AFETR)
Your satellite tracking list
Your tracking list is empty




NASA's NSSDC Master Catalog

Two Line Element Set (TLE):
1 48389U 21038AN  24110.50202974  .00000435  00000-0  48133-4 0  9998
2 48389  53.0537 195.4888 0001425  88.8915 271.2237 15.06384661164017
Source of the keplerian elements: AFSPC